• en Suisse
  • Liste des pays
  • À 7 jours
  • Température de l'eau
  • Carte satellitaire
  • Carte météo
  • Widgets météo
  • user-avatar
    Se connecter

    Météo par heure à Serhiivka

    Ce jour, 22 Septembre, Samedi

    Heure Température Précipitation Vent Pression Humidité
    00:00 +17°C° 0 mm 4 m/s 734 mmHg 52%
    01:00 +17°C° 0 mm 4 m/s 734 mmHg 54%
    02:00 +16°C° 0 mm 3 m/s 734 mmHg 56%
    03:00 +16°C° 0 mm 3 m/s 734 mmHg 58%
    04:00 +14°C° 0 mm 3 m/s 734 mmHg 60%
    05:00 +14°C° 0 mm 3 m/s 733 mmHg 63%
    06:00 +16°C° 0 mm 3 m/s 734 mmHg 62%
    07:00 +17°C° 0 mm 3 m/s 734 mmHg 61%
    08:00 +18°C° 0 mm 3 m/s 734 mmHg 60%
    09:00 +20°C° 0 mm 4 m/s 734 mmHg 56%
    10:00 +21°C° 0 mm 5 m/s 735 mmHg 52%
    11:00 +23°C° 0 mm 6 m/s 735 mmHg 49%
    12:00 +22°C° 0 mm 6 m/s 735 mmHg 54%
    13:00 +21°C° 0 mm 6 m/s 735 mmHg 59%
    14:00 +20°C° 0 mm 6 m/s 735 mmHg 64%
    15:00 +17°C° 0.1 mm 6 m/s 736 mmHg 66%
    16:00 +16°C° 0.1 mm 6 m/s 736 mmHg 69%
    17:00 +14°C° 0.1 mm 6 m/s 736 mmHg 72%
    18:00 +13°C° 1.4 mm 5 m/s 736 mmHg 77%
    19:00 +12°C° 1.4 mm 5 m/s 736 mmHg 83%
    20:00 +11°C° 1.4 mm 4 m/s 736 mmHg 88%
    21:00 +10°C° 0.6 mm 3 m/s 737 mmHg 89%
    22:00 +10°C° 0.6 mm 3 m/s 737 mmHg 90%
    23:00 +9°C° 0.6 mm 2 m/s 737 mmHg 91%

    Demain, 23 Septembre, Dimanche

    Heure Température Précipitation Vent Pression Humidité
    00:00 +9°C° 0 mm 2 m/s 737 mmHg 91%
    01:00 +9°C° 0 mm 2 m/s 737 mmHg 91%
    02:00 +8°C° 0 mm 3 m/s 737 mmHg 91%
    03:00 +8°C° 0 mm 3 m/s 737 mmHg 90%
    04:00 +8°C° 0 mm 3 m/s 737 mmHg 89%
    05:00 +7°C° 0 mm 3 m/s 737 mmHg 88%
    06:00 +8°C° 0 mm 3 m/s 737 mmHg 84%
    07:00 +9°C° 0 mm 3 m/s 737 mmHg 80%
    08:00 +10°C° 0 mm 3 m/s 737 mmHg 77%
    09:00 +12°C° 0 mm 4 m/s 737 mmHg 69%
    10:00 +14°C° 0 mm 4 m/s 737 mmHg 61%
    11:00 +17°C° 0 mm 4 m/s 737 mmHg 53%
    12:00 +17°C° 0 mm 4 m/s 736 mmHg 51%
    13:00 +17°C° 0 mm 5 m/s 736 mmHg 49%
    14:00 +17°C° 0 mm 5 m/s 736 mmHg 47%
    15:00 +18°C° 0 mm 4 m/s 736 mmHg 51%
    16:00 +17°C° 0 mm 3 m/s 735 mmHg 55%
    17:00 +17°C° 0 mm 3 m/s 735 mmHg 59%
    18:00 +15°C° 0 mm 2 m/s 735 mmHg 62%
    19:00 +14°C° 0 mm 2 m/s 735 mmHg 66%
    20:00 +13°C° 0 mm 2 m/s 734 mmHg 70%
    21:00 +13°C° 0 mm 2 m/s 734 mmHg 70%
    22:00 +12°C° 0 mm 3 m/s 733 mmHg 71%
    23:00 +12°C° 0 mm 3 m/s 733 mmHg 71%

    Après-demain, 24 Septembre, Lundi

    Heure Température Précipitation Vent Pression Humidité
    00:00 +12°C° 0 mm 4 m/s 732 mmHg 66%
    01:00 +13°C° 0 mm 5 m/s 731 mmHg 60%
    02:00 +14°C° 0 mm 6 m/s 730 mmHg 54%
    03:00 +14°C° 0.2 mm 6 m/s 728 mmHg 56%
    04:00 +14°C° 0.2 mm 7 m/s 727 mmHg 59%
    05:00 +13°C° 0.2 mm 8 m/s 726 mmHg 61%
    06:00 +13°C° 0.8 mm 8 m/s 725 mmHg 67%
    07:00 +13°C° 0.8 mm 8 m/s 725 mmHg 73%
    08:00 +13°C° 0.8 mm 8 m/s 724 mmHg 78%
    09:00 +15°C° 0.1 mm 9 m/s 724 mmHg 76%
    10:00 +14°C° 0.1 mm 10 m/s 725 mmHg 73%
    11:00 +14°C° 0.1 mm 11 m/s 725 mmHg 71%
    12:00 +13°C° 0 mm 11 m/s 726 mmHg 70%
    13:00 +11°C° 0 mm 11 m/s 728 mmHg 68%
    14:00 +9°C° 0 mm 11 m/s 729 mmHg 67%
    15:00 +9°C° 0 mm 11 m/s 730 mmHg 67%
    16:00 +9°C° 0 mm 11 m/s 731 mmHg 67%
    17:00 +9°C° 0 mm 10 m/s 732 mmHg 66%
    18:00 +8°C° 0 mm 10 m/s 732 mmHg 67%
    19:00 +8°C° 0 mm 9 m/s 733 mmHg 67%
    20:00 +7°C° 0 mm 9 m/s 733 mmHg 67%
    21:00 +7°C° 0 mm 9 m/s 733 mmHg 67%
    22:00 +6°C° 0 mm 8 m/s 733 mmHg 67%
    23:00 +6°C° 0 mm 8 m/s 734 mmHg 67%

    25 Septembre, Mardi

    Heure Température Précipitation Vent Pression Humidité
    00:00 +6°C° 0 mm 9 m/s 734 mmHg 68%
    01:00 +6°C° 0 mm 9 m/s 734 mmHg 68%
    02:00 +6°C° 0 mm 9 m/s 735 mmHg 69%
    03:00 +6°C° 0.1 mm 9 m/s 735 mmHg 70%
    04:00 +5°C° 0.1 mm 10 m/s 736 mmHg 70%
    05:00 +5°C° 0.1 mm 10 m/s 736 mmHg 71%
    06:00 +5°C° 0.4 mm 9 m/s 737 mmHg 72%
    07:00 +5°C° 0.4 mm 9 m/s 738 mmHg 72%
    08:00 +5°C° 0.4 mm 9 m/s 739 mmHg 73%
    09:00 +6°C° 0 mm 9 m/s 739 mmHg 67%
    10:00 +7°C° 0 mm 9 m/s 740 mmHg 61%
    11:00 +8°C° 0 mm 9 m/s 740 mmHg 56%
    12:00 +8°C° 0.2 mm 9 m/s 740 mmHg 54%
    13:00 +8°C° 0.2 mm 9 m/s 740 mmHg 53%
    14:00 +10°C° 0.2 mm 9 m/s 741 mmHg 51%
    15:00 +8°C° 0.1 mm 9 m/s 741 mmHg 53%
    16:00 +9°C° 0.1 mm 8 m/s 741 mmHg 54%
    17:00 +8°C° 0.1 mm 7 m/s 741 mmHg 56%
    18:00 +6°C° 0 mm 7 m/s 742 mmHg 59%
    19:00 +7°C° 0 mm 6 m/s 742 mmHg 62%
    20:00 +6°C° 0 mm 5 m/s 743 mmHg 65%
    21:00 +5°C° 0 mm 5 m/s 743 mmHg 66%
    22:00 +5°C° 0 mm 5 m/s 743 mmHg 67%
    23:00 +5°C° 0 mm 5 m/s 743 mmHg 68%

    26 Septembre, Mercredi

    Heure Température Précipitation Vent Pression Humidité
    00:00 +3°C° 0 mm 5 m/s 743 mmHg 68%
    01:00 +3°C° 0 mm 5 m/s 743 mmHg 67%
    02:00 +3°C° 0 mm 5 m/s 743 mmHg 67%
    03:00 +3°C° 0 mm 6 m/s 742 mmHg 66%
    04:00 +3°C° 0 mm 6 m/s 742 mmHg 65%
    05:00 +3°C° 0 mm 6 m/s 742 mmHg 64%
    06:00 +4°C° 0 mm 7 m/s 741 mmHg 63%
    07:00 +5°C° 0 mm 8 m/s 741 mmHg 62%
    08:00 +6°C° 0 mm 9 m/s 740 mmHg 61%
    09:00 +6°C° 0.7 mm 9 m/s 740 mmHg 66%
    10:00 +5°C° 0.7 mm 9 m/s 740 mmHg 72%
    11:00 +5°C° 0.7 mm 9 m/s 740 mmHg 77%
    12:00 +6°C° 0.4 mm 9 m/s 740 mmHg 75%
    13:00 +7°C° 0.4 mm 9 m/s 740 mmHg 73%
    14:00 +7°C° 0.4 mm 8 m/s 740 mmHg 71%
    15:00 +8°C° 0.3 mm 7 m/s 740 mmHg 71%
    16:00 +8°C° 0.3 mm 6 m/s 740 mmHg 70%
    17:00 +8°C° 0.3 mm 5 m/s 741 mmHg 70%
    18:00 +7°C° 0 mm 5 m/s 741 mmHg 74%
    19:00 +6°C° 0 mm 4 m/s 741 mmHg 78%
    20:00 +5°C° 0 mm 3 m/s 742 mmHg 82%
    21:00 +4°C° 0 mm 3 m/s 742 mmHg 83%
    22:00 +4°C° 0 mm 3 m/s 742 mmHg 85%
    23:00 +4°C° 0 mm 3 m/s 742 mmHg 86%

    27 Septembre, Jeudi

    Heure Température Précipitation Vent Pression Humidité
    00:00 +3°C° 0 mm 3 m/s 743 mmHg 87%
    01:00 +3°C° 0 mm 3 m/s 743 mmHg 88%
    02:00 +3°C° 0 mm 3 m/s 743 mmHg 89%
    03:00 +4°C° 0 mm 2 m/s 743 mmHg 90%
    04:00 +3°C° 0 mm 2 m/s 743 mmHg 90%
    05:00 +3°C° 0 mm 2 m/s 743 mmHg 90%
    06:00 +4°C° 0 mm 2 m/s 743 mmHg 87%
    07:00 +5°C° 0 mm 2 m/s 743 mmHg 83%
    08:00 +6°C° 0 mm 2 m/s 743 mmHg 79%
    09:00 +8°C° 0 mm 2 m/s 743 mmHg 72%
    10:00 +10°C° 0 mm 3 m/s 743 mmHg 65%
    11:00 +12°C° 0 mm 3 m/s 743 mmHg 57%
    12:00 +13°C° 0 mm 3 m/s 743 mmHg 56%
    13:00 +14°C° 0 mm 3 m/s 742 mmHg 55%
    14:00 +15°C° 0 mm 4 m/s 742 mmHg 53%
    15:00 +14°C° 0 mm 3 m/s 741 mmHg 57%
    16:00 +14°C° 0 mm 3 m/s 741 mmHg 60%
    17:00 +14°C° 0 mm 3 m/s 740 mmHg 63%
    18:00 +13°C° 0 mm 3 m/s 740 mmHg 64%
    19:00 +11°C° 0 mm 3 m/s 740 mmHg 65%
    20:00 +10°C° 0 mm 3 m/s 740 mmHg 65%
    21:00 +10°C° 0 mm 4 m/s 739 mmHg 61%
    22:00 +10°C° 0 mm 4 m/s 739 mmHg 57%
    23:00 +10°C° 0 mm 4 m/s 739 mmHg 53%
    Voir plus